• In Spain
  • List of Countries
  • For 7 days
  • Water Temperature
  • Satellite Maps
  • Weather Map
  • Weather Widgets
  • user-avatar
    Login

    Hourly Weather Kistutovo

    Today, 25 September, Tuesday

    Time Temperature Precipitation Wind Pressure Humidity
    00:00 +6°C° 2 mm 4 mps 733 mmHg 94%
    01:00 +6°C° 2 mm 4 mps 733 mmHg 95%
    02:00 +6°C° 0 mm 4 mps 733 mmHg 94%
    03:00 +6°C° 1.6 mm 4 mps 733 mmHg 94%
    04:00 +6°C° 1.6 mm 5 mps 733 mmHg 93%
    05:00 +5°C° 1.6 mm 6 mps 733 mmHg 92%
    06:00 +5°C° 0.7 mm 6 mps 734 mmHg 91%
    07:00 +5°C° 0.7 mm 6 mps 735 mmHg 90%
    08:00 +5°C° 0 mm 6 mps 735 mmHg 89%
    09:00 +5°C° 0.3 mm 6 mps 736 mmHg 87%
    10:00 +5°C° 0.3 mm 6 mps 737 mmHg 84%
    11:00 +7°C° 0.3 mm 6 mps 738 mmHg 82%
    12:00 +7°C° 0.2 mm 6 mps 738 mmHg 78%
    13:00 +8°C° 0.2 mm 6 mps 739 mmHg 75%
    14:00 +8°C° 0.2 mm 6 mps 740 mmHg 71%
    15:00 +8°C° 0 mm 5 mps 741 mmHg 72%
    16:00 +7°C° 0 mm 5 mps 742 mmHg 72%
    17:00 +7°C° 0 mm 4 mps 743 mmHg 73%
    18:00 +6°C° 0 mm 4 mps 743 mmHg 75%
    19:00 +6°C° 0 mm 5 mps 744 mmHg 76%
    20:00 +5°C° 0 mm 5 mps 745 mmHg 78%
    21:00 +5°C° 0 mm 4 mps 746 mmHg 78%
    22:00 +4°C° 0 mm 4 mps 747 mmHg 78%
    23:00 +4°C° 0 mm 4 mps 747 mmHg 78%

    Tomorrow, 26 September, Wednesday

    Time Temperature Precipitation Wind Pressure Humidity
    00:00 +3°C° 0 mm 4 mps 748 mmHg 79%
    01:00 +3°C° 0 mm 4 mps 748 mmHg 79%
    02:00 +1°C° 0 mm 4 mps 749 mmHg 80%
    03:00 +2°C° 0 mm 3 mps 749 mmHg 81%
    04:00 +1°C° 0 mm 3 mps 750 mmHg 81%
    05:00 +1°C° 0 mm 3 mps 750 mmHg 82%
    06:00 +2°C° 0 mm 3 mps 750 mmHg 80%
    07:00 +3°C° 0 mm 3 mps 750 mmHg 78%
    08:00 +4°C° 0 mm 3 mps 751 mmHg 76%
    09:00 +5°C° 0 mm 4 mps 750 mmHg 74%
    10:00 +7°C° 0 mm 4 mps 750 mmHg 71%
    11:00 +8°C° 0 mm 4 mps 750 mmHg 69%
    12:00 +10°C° 0 mm 4 mps 750 mmHg 65%
    13:00 +10°C° 0 mm 5 mps 749 mmHg 61%
    14:00 +12°C° 0 mm 5 mps 749 mmHg 57%
    15:00 +10°C° 0 mm 5 mps 748 mmHg 60%
    16:00 +9°C° 0 mm 5 mps 747 mmHg 63%
    17:00 +8°C° 0 mm 5 mps 746 mmHg 66%
    18:00 +8°C° 0.6 mm 6 mps 745 mmHg 72%
    19:00 +7°C° 0.6 mm 6 mps 743 mmHg 77%
    20:00 +5°C° 0.6 mm 7 mps 742 mmHg 83%
    21:00 +5°C° 1.6 mm 7 mps 741 mmHg 84%
    22:00 +5°C° 1.6 mm 7 mps 739 mmHg 86%
    23:00 +5°C° 1.6 mm 7 mps 738 mmHg 88%

    Day after tomorrow, 27 September, Thursday

    Time Temperature Precipitation Wind Pressure Humidity
    00:00 +5°C° 1.4 mm 7 mps 737 mmHg 89%
    01:00 +5°C° 1.4 mm 6 mps 736 mmHg 89%
    02:00 +7°C° 1.4 mm 6 mps 735 mmHg 90%
    03:00 +7°C° 1.4 mm 5 mps 735 mmHg 90%
    04:00 +7°C° 1.4 mm 5 mps 734 mmHg 89%
    05:00 +7°C° 1.4 mm 5 mps 734 mmHg 89%
    06:00 +7°C° 0 mm 5 mps 734 mmHg 86%
    07:00 +7°C° 0 mm 5 mps 735 mmHg 83%
    08:00 +7°C° 0 mm 5 mps 735 mmHg 80%
    09:00 +7°C° 0.2 mm 6 mps 735 mmHg 77%
    10:00 +8°C° 0.2 mm 6 mps 735 mmHg 74%
    11:00 +8°C° 0.2 mm 7 mps 736 mmHg 71%
    12:00 +8°C° 0.2 mm 7 mps 736 mmHg 70%
    13:00 +8°C° 0.2 mm 7 mps 736 mmHg 70%
    14:00 +8°C° 0.2 mm 7 mps 736 mmHg 70%
    15:00 +7°C° 0.1 mm 6 mps 737 mmHg 72%
    16:00 +7°C° 0.1 mm 5 mps 737 mmHg 74%
    17:00 +6°C° 0.1 mm 5 mps 737 mmHg 76%
    18:00 +6°C° 0 mm 5 mps 738 mmHg 77%
    19:00 +5°C° 0 mm 4 mps 738 mmHg 78%
    20:00 +5°C° 0 mm 4 mps 739 mmHg 78%
    21:00 +5°C° 0 mm 4 mps 739 mmHg 78%
    22:00 +5°C° 0 mm 4 mps 739 mmHg 78%
    23:00 +4°C° 0 mm 4 mps 740 mmHg 78%

    28 September, Friday

    Time Temperature Precipitation Wind Pressure Humidity
    00:00 +4°C° 0 mm 4 mps 740 mmHg 79%
    01:00 +4°C° 0 mm 4 mps 740 mmHg 81%
    02:00 +3°C° 0 mm 4 mps 740 mmHg 82%
    03:00 +3°C° 0.1 mm 4 mps 740 mmHg 83%
    04:00 +3°C° 0.1 mm 3 mps 740 mmHg 84%
    05:00 +4°C° 0.1 mm 3 mps 740 mmHg 85%
    06:00 +3°C° 1 mm 3 mps 739 mmHg 87%
    07:00 +3°C° 1 mm 3 mps 738 mmHg 89%
    08:00 +3°C° 1 mm 3 mps 737 mmHg 91%
    09:00 +3°C° 2.5 mm 3 mps 736 mmHg 92%
    10:00 +4°C° 2.5 mm 3 mps 735 mmHg 92%
    11:00 +4°C° 2.5 mm 3 mps 734 mmHg 93%
    12:00 +4°C° 0.6 mm 3 mps 734 mmHg 92%
    13:00 +4°C° 0.6 mm 3 mps 734 mmHg 90%
    14:00 +4°C° 0.6 mm 3 mps 734 mmHg 89%
    15:00 +4°C° 0.1 mm 4 mps 735 mmHg 87%
    16:00 +4°C° 0.1 mm 4 mps 737 mmHg 85%
    17:00 +4°C° 0.1 mm 4 mps 738 mmHg 83%
    18:00 +3°C° 0 mm 4 mps 739 mmHg 84%
    19:00 +1°C° 0 mm 4 mps 740 mmHg 85%
    20:00 +1°C° 0 mm 3 mps 741 mmHg 85%
    21:00 +1°C° 0 mm 3 mps 742 mmHg 87%
    22:00 +1°C° 0 mm 3 mps 743 mmHg 88%
    23:00 0°C° 0 mm 3 mps 743 mmHg 89%

    29 September, Saturday

    Time Temperature Precipitation Wind Pressure Humidity
    00:00 0°C° 0 mm 3 mps 744 mmHg 90%
    01:00 -1°C° 0 mm 3 mps 745 mmHg 92%
    02:00 -1°C° 0 mm 2 mps 745 mmHg 93%
    03:00 -1°C° 0 mm 3 mps 746 mmHg 92%
    04:00 -1°C° 0 mm 3 mps 746 mmHg 91%
    05:00 -1°C° 0 mm 3 mps 747 mmHg 90%
    06:00 -1°C° 0 mm 3 mps 747 mmHg 86%
    07:00 0°C° 0 mm 3 mps 748 mmHg 82%
    08:00 +1°C° 0 mm 3 mps 749 mmHg 79%
    09:00 +1°C° 0 mm 4 mps 749 mmHg 73%
    10:00 +3°C° 0 mm 4 mps 750 mmHg 67%
    11:00 +4°C° 0 mm 4 mps 751 mmHg 61%
    12:00 +4°C° 0 mm 4 mps 751 mmHg 58%
    13:00 +5°C° 0 mm 4 mps 751 mmHg 56%
    14:00 +5°C° 0 mm 4 mps 751 mmHg 53%
    15:00 +4°C° 0 mm 3 mps 752 mmHg 60%
    16:00 +3°C° 0 mm 3 mps 752 mmHg 66%
    17:00 +3°C° 0 mm 2 mps 752 mmHg 72%
    18:00 +2°C° 0 mm 2 mps 753 mmHg 75%
    19:00 +1°C° 0 mm 2 mps 753 mmHg 78%
    20:00 -1°C° 0 mm 2 mps 754 mmHg 81%
    21:00 -1°C° 0 mm 2 mps 754 mmHg 80%
    22:00 -1°C° 0 mm 2 mps 754 mmHg 80%
    23:00 -1°C° 0 mm 2 mps 755 mmHg 80%

    30 September, Sunday

    Time Temperature Precipitation Wind Pressure Humidity
    00:00 -1°C° 0 mm 2 mps 755 mmHg 79%
    01:00 -1°C° 0 mm 2 mps 755 mmHg 79%
    02:00 -2°C° 0 mm 2 mps 755 mmHg 78%
    03:00 -1°C° 0 mm 3 mps 755 mmHg 76%
    04:00 -1°C° 0 mm 3 mps 754 mmHg 74%
    05:00 -1°C° 0 mm 3 mps 754 mmHg 72%
    06:00 -1°C° 0 mm 4 mps 754 mmHg 69%
    07:00 0°C° 0 mm 4 mps 754 mmHg 66%
    08:00 +1°C° 0 mm 5 mps 753 mmHg 63%
    09:00 +3°C° 0 mm 5 mps 753 mmHg 62%
    10:00 +5°C° 0 mm 5 mps 753 mmHg 60%
    11:00 +7°C° 0 mm 6 mps 752 mmHg 59%
    12:00 +7°C° 0 mm 6 mps 752 mmHg 60%
    13:00 +8°C° 0 mm 5 mps 752 mmHg 62%
    14:00 +8°C° 0 mm 5 mps 751 mmHg 63%
    15:00 +7°C° 0 mm 5 mps 751 mmHg 67%
    16:00 +7°C° 0 mm 4 mps 751 mmHg 71%
    17:00 +6°C° 0 mm 4 mps 751 mmHg 75%
    18:00 +6°C° 0 mm 4 mps 751 mmHg 76%
    19:00 +6°C° 0 mm 4 mps 751 mmHg 77%
    20:00 +6°C° 0 mm 4 mps 751 mmHg 79%
    21:00 +6°C° 0 mm 4 mps 751 mmHg 79%
    22:00 +6°C° 0 mm 4 mps 751 mmHg 80%
    23:00 +6°C° 0 mm 4 mps 751 mmHg 80%
    Show more